Weather History for Minneapolis, MN

Change the Weather History Date:

Tuesday, November 6, 2012

  Actual Average Record
Temperature  
Mean Temperature 41 °F 39 °F  
Max Temperature 44 °F 47 °F 73 °F (1893)
Min Temperature 38 °F 31 °F 0 °F (1991)
Degree Days  
Heating Degree Days 24 26  
Month to date heating degree days 157 147  
Since 1 July heating degree days 817 827  
Cooling Degree Days 0 0  
Month to date cooling degree days 0 0  
Year to date cooling degree days 1131 753  
Moisture  
Dew Point 36 °F    
Average Humidity 79    
Maximum Humidity 92    
Minimum Humidity 65    
Precipitation  
Precipitation 0.31 in 0.06 in 1.54 in (2000)
Month to date precipitation 0.32 0.36  
Year to date precipitation 27.64 28.04  
Snow  
Snow 0.00 in 0.20 in 2.90 in (1988)
Month to date snowfall 0.0 1.0  
Since 1 July snowfall T 1.6  
Since 1 September snowfall T 1.6  
Snow Depth 0.00 in    
Sea Level Pressure  
Sea Level Pressure 29.85 in    
Wind  
Wind Speed 11 mph (West)    
Max Wind Speed 20 mph    
Max Gust Speed 25 mph    
Visibility 7 miles    
Events Rain    
T = Trace of Precipitation, MM = Missing Value Source: NWS Daily Summary

Daily Weather History Graph

Daily Weather History Graph

Search for Another Location

Airport:

Trip Planner

Search our weather history database for the weather conditions in past years. The results will help you decide how hot, cold, wet, or windy it might be!

Date:

Astronomy

Nov. 06, 2012 Rise Set
Actual Time 6:58 AM CST 4:53 PM CST
Civil Twilight 6:27 AM CST 5:24 PM CST
Nautical Twilight 5:52 AM CST 5:59 PM CST
Astronomical Twilight 5:18 AM CST 6:33 PM CST
Moon 11:36 PM CST (11/6) 12:49 PM CST (11/6)
Length of Visible Light 10h 57m
Length of Day
9h 55m
Waning Gibbous, 53% of the Moon is Illuminated
Nov 6
Waning Gibbous
Nov 6
Last Quarter
Nov 13
New
Nov 20
First Quarter
Nov 28
Full

Hourly Weather History & Observations

Time (CST) Temp. Windchill Dew Point Humidity Pressure Visibility Wind Dir Wind Speed Gust Speed Precip Events Conditions
12:32 AM 41.0 °F 35.2 °F 37.4 °F 87% 29.93 in 4.0 mi SSW 9.2 mph 18.4 mph 0.00 in   Light Drizzle
12:44 AM 41.0 °F 35.8 °F 37.4 °F 87% 29.93 in 2.0 mi SSW 8.1 mph - 0.00 in   Light Drizzle
12:53 AM 39.9 °F 35.1 °F 37.9 °F 93% 29.94 in 2.0 mi SSW 6.9 mph - 0.00 in   Light Drizzle
1:00 AM 39.2 °F 33.6 °F 37.4 °F 93% 29.92 in 1.8 mi SSW 8.1 mph - 0.00 in Rain Light Rain
1:53 AM 39.9 °F 35.1 °F 39.0 °F 97% 29.92 in 1.8 mi South 6.9 mph - 0.08 in Rain Light Rain
2:06 AM 39.2 °F 33.0 °F 39.2 °F 100% 29.89 in 2.0 mi South 9.2 mph - 0.02 in Rain Light Rain
2:38 AM 39.2 °F 33.6 °F 37.4 °F 93% 29.87 in 3.0 mi SSW 8.1 mph - 0.06 in Rain Light Rain
2:48 AM 39.2 °F 33.0 °F 37.4 °F 93% 29.87 in 3.0 mi South 9.2 mph - 0.07 in Rain Light Rain
2:53 AM 39.9 °F 34.5 °F 37.9 °F 93% 29.88 in 3.0 mi SSW 8.1 mph 17.3 mph 0.08 in Rain Light Rain
3:53 AM 39.9 °F 34.5 °F 37.0 °F 89% 29.84 in 5.0 mi South 8.1 mph - 0.08 in Rain Light Rain
4:53 AM 41.0 °F 34.7 °F 37.9 °F 89% 29.81 in 5.0 mi SSW 10.4 mph 18.4 mph 0.02 in Rain Light Rain
5:53 AM 41.0 °F 33.9 °F 37.9 °F 89% 29.80 in 4.0 mi SW 12.7 mph - 0.04 in Rain Light Rain
6:15 AM 39.2 °F 33.6 °F 37.4 °F 93% 29.77 in 2.5 mi SW 8.1 mph - 0.01 in Rain Light Rain
6:39 AM 39.2 °F 32.5 °F 37.4 °F 93% 29.76 in 3.0 mi SW 10.4 mph - 0.01 in   Light Drizzle
6:53 AM 39.9 °F 33.4 °F 39.0 °F 97% 29.78 in 4.0 mi SW 10.4 mph - 0.01 in   Light Drizzle
7:04 AM 39.2 °F 33.0 °F 39.2 °F 100% 29.76 in 2.5 mi SW 9.2 mph - 0.00 in   Light Drizzle
7:53 AM 39.9 °F 34.5 °F 39.0 °F 97% 29.79 in 2.5 mi West 8.1 mph - 0.00 in   Light Drizzle
8:10 AM 39.2 °F 33.0 °F 39.2 °F 100% 29.78 in 2.5 mi West 9.2 mph - 0.00 in   Overcast
8:15 AM 41.0 °F 34.7 °F 39.2 °F 93% 29.78 in 7.0 mi West 10.4 mph - 0.00 in   Overcast
8:33 AM 41.0 °F 32.8 °F 37.4 °F 87% 29.78 in 9.0 mi West 16.1 mph - 0.00 in   Overcast
8:53 AM 41.0 °F 33.1 °F 36.0 °F 82% 29.80 in 9.0 mi NW 15.0 mph 19.6 mph 0.00 in   Overcast
9:36 AM 41.0 °F 34.7 °F 37.4 °F 87% 29.79 in 9.0 mi WNW 10.4 mph - N/A   Overcast
9:46 AM 42.8 °F 37.0 °F 37.4 °F 81% 29.79 in 8.0 mi WNW 10.4 mph - N/A   Overcast
9:53 AM 42.1 °F 35.2 °F 37.0 °F 82% 29.81 in 9.0 mi West 12.7 mph - N/A   Overcast
10:53 AM 41.0 °F 33.9 °F 34.0 °F 76% 29.82 in 10.0 mi WNW 12.7 mph 21.9 mph N/A   Overcast
11:53 AM 44.1 °F 37.4 °F 34.0 °F 68% 29.81 in 10.0 mi NNW 13.8 mph - N/A   Overcast
12:23 PM 44.6 °F 38.8 °F 33.8 °F 66% 29.79 in 10.0 mi WNW 11.5 mph 19.6 mph N/A   Overcast
12:34 PM 44.6 °F 38.4 °F 33.8 °F 66% 29.79 in 10.0 mi WNW 12.7 mph 19.6 mph N/A   Overcast
12:53 PM 44.1 °F 38.6 °F 34.0 °F 68% 29.81 in 10.0 mi WNW 10.4 mph 20.7 mph N/A   Overcast
1:04 PM 42.8 °F 35.1 °F 33.8 °F 70% 29.79 in 10.0 mi WNW 16.1 mph - N/A   Overcast
1:46 PM 42.8 °F 36.2 °F 35.6 °F 76% 29.79 in 10.0 mi NW 12.7 mph - N/A   Overcast
1:53 PM 43.0 °F 37.2 °F 35.1 °F 74% 29.81 in 10.0 mi WNW 10.4 mph 18.4 mph N/A   Overcast
2:25 PM 42.8 °F 36.2 °F 35.6 °F 76% 29.80 in 9.0 mi WNW 12.7 mph 20.7 mph N/A   Overcast
2:53 PM 41.0 °F 34.7 °F 37.0 °F 86% 29.83 in 6.0 mi NW 10.4 mph - 0.00 in Rain Light Rain
3:53 PM 41.0 °F 35.2 °F 37.0 °F 86% 29.84 in 6.0 mi WNW 9.2 mph - 0.00 in Rain Light Rain
4:43 PM 39.2 °F 32.5 °F 35.6 °F 87% 29.84 in 10.0 mi NW 10.4 mph - 0.00 in   Overcast
4:53 PM 41.0 °F 33.9 °F 36.0 °F 82% 29.86 in 10.0 mi NW 12.7 mph - 0.00 in   Overcast
5:53 PM 41.0 °F 33.9 °F 34.0 °F 76% 29.88 in 10.0 mi NW 12.7 mph - N/A   Overcast
6:53 PM 39.9 °F 32.1 °F 32.0 °F 73% 29.91 in 10.0 mi NNW 13.8 mph - N/A   Overcast
7:53 PM 39.9 °F 32.5 °F 32.0 °F 73% 29.93 in 10.0 mi NNW 12.7 mph - N/A   Overcast
8:41 PM 39.2 °F 31.6 °F 32.0 °F 75% 29.92 in 10.0 mi NW 12.7 mph - N/A   Overcast
8:53 PM 39.0 °F 31.4 °F 32.0 °F 76% 29.94 in 10.0 mi NNW 12.7 mph - N/A   Overcast
9:09 PM 39.2 °F 32.0 °F 32.0 °F 75% 29.92 in 10.0 mi NW 11.5 mph - N/A   Overcast
9:43 PM 39.2 °F 32.5 °F 32.0 °F 75% 29.93 in 10.0 mi NNW 10.4 mph - N/A   Overcast
9:53 PM 39.0 °F 31.4 °F 32.0 °F 76% 29.96 in 10.0 mi NNW 12.7 mph - N/A   Overcast
10:53 PM 39.0 °F 33.4 °F 33.1 °F 79% 29.98 in 10.0 mi NNW 8.1 mph - 0.00 in   Overcast
11:41 PM 39.2 °F 33.0 °F 33.8 °F 81% 29.97 in 10.0 mi NNW 9.2 mph - N/A   Overcast
11:53 PM 39.0 °F 32.8 °F 33.1 °F 79% 29.99 in 10.0 mi NNW 9.2 mph - N/A   Overcast